Theta_e
346 348 352 352 352 352 351 351 353 354 354 354 354 352 350 349 352 352 346 340 339 340 348 350 351 352 350 348 345 339 337 335 330 331 331 330 327 327 332 329 329 326 325
347 349 350 354 354 352 351 348 345 341 343 343 342 342 345 347 340 336 337 340 339 338 337 333 349 355 351 349 343 339 337 334 332 330 329 327 325 325 326 326 328 330 325
351 352 352 348 344 340 339 340 340 339 340 341 339 339 342 342 338 334 334 335 336 335 334 334 338 349 347 349 344 341 340 337 335 331 329 326 324 323 321 322 323 325 326
340 337 337 338 338 339 339 339 340 340 339 337 337 335 337 341 341 337 336 336 335 335 338 337 337 348 347 349 347 345 344 339 336 331 327 323 322 323 322 320 320 320 321
337 335 334 336 338 338 337 336 336 337 335 337 337 336 336 340 344 337 340 339 337 337 337 334 334 337 340 342 348 346 342 340 337 333 327 323 321 321 321 320 319 319 320
333 334 337 336 334 335 336 336 334 336 336 330 328 328 329 339 332 333 335 333 334 332 330 329 327 334 332 337 339 340 344 345 339 333 334 327 325 323 322 320 318 317 317
333 334 333 333 333 333 332 330 329 328 327 327 326 327 327 328 328 327 331 326 326 326 326 325 327 333 331 329 333 336 336 335 339 342 337 333 333 329 326 319 320 318 319
330 330 329 327 325 325 326 324 324 325 325 325 325 326 325 325 325 323 326 323 323 324 324 325 327 329 329 329 328 331 335 338 337 340 343 344 340 334 331 328 326 321 320
322 321 322 323 322 322 321 321 321 321 321 322 323 323 322 322 321 320 320 321 322 323 325 326 327 326 326 323 331 329 330 334 334 329 330 331 329 325 328 324 319 320 317
321 321 322 322 321 320 319 319 320 319 321 321 321 321 322 321 319 317 316 320 318 319 321 323 325 325 321 320 327 328 329 329 332 334 333 331 328 330 326 329 325 322 316
320 320 320 320 320 320 317 317 317 317 317 316 317 317 318 318 318 315 314 316 317 317 317 321 325 321 315 313 313 323 326 325 327 333 334 331 332 331 328 329 328 327 318
319 318 318 318 319 319 315 315 315 314 313 312 312 312 313 312 313 313 313 313 316 315 316 319 322 317 312 310 312 318 315 319 325 332 331 326 325 328 331 329 328 326 324
318 317 316 315 315 314 311 311 311 311 310 310 309 309 309 311 311 312 311 312 313 312 315 317 315 310 309 312 312 314 318 324 324 324 327 327 324 328 327 330 330 328 325
313 312 312 311 312 311 312 311 309 310 311 312 311 311 311 309 310 311 311 311 313 312 313 310 314 315 316 319 317 319 322 321 321 322 324 329 328 324 325 327 327 327 327
311 311 309 309 308 308 309 309 310 311 309 310 310 310 309 310 312 307 306 308 308 306 303 306 310 310 312 314 316 319 319 320 321 322 322 323 324 329 327 324 327 326 325
308 308 308 307 307 309 310 309 311 309 306 304 303 303 309 306 303 300 299 299 297 299 307 306 308 310 310 312 313 316 317 318 319 320 321 322 322 325 329 326 326 326 324
305 306 308 309 312 311 311 310 310 311 309 306 303 303 301 300 300 299 297 295 297 301 309 308 309 310 311 312 311 313 315 318 317 318 321 322 324 326 326 328 326 325 325
306 308 306 307 308 311 311 311 312 312 312 313 310 307 304 301 300 299 297 299 308 305 308 308 309 310 310 310 312 313 315 318 318 318 320 323 324 325 325 328 328 324 324
306 306 305 306 307 308 310 312 313 313 314 315 315 310 309 303 300 298 297 306 309 310 310 311 312 312 314 315 315 315 316 317 318 319 322 323 324 324 323 327 328 316 319
306 310 310 305 305 305 311 310 311 312 313 314 313 312 312 307 307 308 310 311 311 312 313 313 314 316 316 317 317 318 317 316 317 318 320 322 324 324 323 323 325 326 325
306 306 310 305 304 305 307 310 311 312 312 312 312 309 302 303 306 308 310 309 310 310 311 313 315 315 316 316 318 317 317 316 316 316 318 320 321 322 322 324 326 328 328
305 305 304 303 304 304 305 309 308 310 311 310 308 306 301 306 308 309 309 310 311 312 313 313 314 315 317 317 317 317 316 315 315 316 316 318 318 318 320 320 323 325 327
306 305 304 303 304 306 305 305 304 305 308 305 304 305 306 307 308 308 309 310 310 310 310 312 313 312 314 316 317 317 317 317 317 317 318 317 317 317 318 319 322 324 321
308 306 305 304 303 304 304 305 303 302 303 303 305 304 306 307 307 307 307 307 307 308 310 310 309 308 309 309 310 311 312 312 312 310 311 313 314 316 320 321 322 322 323
306 305 304 306 306 305 305 301 301 302 302 305 305 305 307 307 306 306 306 305 305 305 305 305 304 304 303 303 303 304 301 289 293 295 302 306 309 312 316 319 320 322 321
304 304 307 305 305 304 302 303 302 301 302 302 305 306 306 306 306 305 304 303 302 302 302 302 302 302 301 302 301 293 288 287 289 287 295 300 305 309 313 315 318 321 322
Wind_Speed
11 10 11 9 6 5 5 5 4 4 4 4 5 5 5 4 3 6 9 10 13 15 18 8 8 7 4 3 3 3 4 4 4 3 2 4 5 5 4 3 4 4 3
7 5 4 7 6 5 5 5 5 6 5 6 6 6 5 6 6 7 8 8 8 10 15 27 22 5 6 4 4 6 4 5 4 5 4 4 5 5 4 4 4 4 4
7 7 7 7 7 5 6 5 4 6 6 6 3 3 4 3 3 4 7 6 7 14 18 21 32 14 7 4 4 5 4 3 4 3 4 2 3 2 2 3 3 4 3
13 14 15 15 13 9 6 5 4 5 3 1 5 4 3 3 4 3 5 9 7 9 18 10 17 17 8 6 5 8 6 5 4 4 3 3 2 3 2 3 4 3 4
15 18 19 18 12 7 5 7 7 5 5 5 2 4 4 5 3 4 5 3 1 2 10 10 11 11 13 10 5 6 5 5 4 4 3 3 4 3 5 4 4 3 4
12 9 9 14 19 16 5 4 5 5 4 4 6 5 4 4 8 6 2 3 3 2 5 4 6 9 8 9 9 9 9 7 7 4 5 6 7 5 4 4 4 3 3
12 4 11 9 4 4 1 2 3 5 4 6 7 6 4 5 9 7 3 4 4 3 5 5 7 5 7 6 7 9 8 13 15 8 9 9 7 10 7 5 6 5 5
7 2 3 4 5 3 3 2 4 4 4 3 5 5 5 4 7 10 9 6 5 5 5 6 7 8 8 6 6 6 6 6 6 7 10 12 10 6 11 9 9 5 2
1 5 5 5 5 5 5 4 1 2 3 4 4 6 6 7 9 9 5 6 6 7 6 7 6 7 12 3 4 6 7 7 4 9 12 10 9 11 9 6 4 6 3
2 3 4 4 5 5 2 2 2 2 4 4 6 5 7 6 9 12 5 0 2 4 7 7 8 9 10 8 5 3 6 7 7 7 5 6 7 7 12 11 5 8 4
3 3 4 5 4 3 1 1 2 3 4 4 5 5 6 5 7 10 6 3 3 4 4 5 5 7 7 6 6 4 5 5 10 7 6 4 4 4 4 9 9 8 5
5 6 6 6 5 5 5 4 3 2 3 3 3 5 5 6 7 7 10 5 5 3 5 5 6 10 9 8 6 9 5 6 5 4 4 4 4 4 5 6 8 6 6
6 6 6 5 4 3 3 4 3 5 4 5 3 5 5 4 5 11 12 11 8 4 5 7 14 14 13 9 11 10 5 3 4 3 4 6 4 4 2 4 3 3 3
5 5 5 5 7 6 5 5 4 5 6 6 6 6 6 4 5 6 5 5 7 6 7 6 8 12 13 8 7 6 4 4 4 4 4 3 3 2 4 4 5 4 4
6 5 5 5 6 6 6 5 5 5 4 5 5 5 7 8 6 7 8 7 6 5 8 4 3 3 4 5 5 5 4 4 5 4 4 4 4 3 5 4 4 5 5
5 4 4 4 4 4 4 7 6 8 12 10 11 7 6 10 14 13 13 12 5 6 2 3 4 4 5 6 5 6 6 6 5 4 5 4 4 5 6 5 5 7 8
3 5 4 5 5 6 8 8 8 8 11 12 11 13 10 11 14 14 12 10 5 3 4 4 5 6 7 6 6 6 7 7 4 4 5 6 6 6 6 6 7 7 8
3 5 4 4 4 4 5 6 6 7 9 9 8 7 10 13 12 12 9 6 5 3 4 6 8 7 6 7 7 6 6 6 5 5 5 7 7 6 5 6 7 9 9
4 4 4 4 4 5 6 5 6 7 7 8 8 6 7 12 11 10 3 3 7 9 7 7 7 7 8 7 7 7 7 7 7 6 6 7 7 6 5 6 7 10 11
5 8 6 4 4 4 6 6 5 6 6 5 5 7 8 7 7 7 6 6 6 6 7 9 10 8 8 9 9 8 7 7 7 6 7 7 8 7 6 5 5 8 9
4 5 8 4 5 4 5 6 5 6 7 7 6 6 10 7 10 9 7 7 7 7 8 9 8 9 9 9 8 9 8 8 8 7 6 7 7 7 7 6 7 8 9
5 5 5 4 4 5 4 4 4 6 7 7 6 7 12 7 8 8 9 8 7 8 8 8 9 9 9 9 9 8 7 8 7 6 6 5 5 5 5 4 6 6 8
5 6 5 4 5 6 5 5 5 5 6 6 6 7 7 8 7 8 9 8 8 8 7 9 5 7 8 7 6 5 6 6 4 3 4 4 4 4 4 5 5 6 6
6 6 6 5 4 5 5 6 5 7 6 6 6 7 8 7 8 8 9 8 8 9 7 7 7 10 9 8 7 6 5 5 4 4 6 6 7 7 7 8 9 8 8
5 5 5 5 6 6 6 5 6 5 5 6 6 7 7 7 7 8 8 8 8 8 8 8 6 9 10 13 12 13 10 9 7 7 6 7 10 10 9 8 10 9 7
5 5 6 4 5 5 5 5 4 4 5 5 6 7 7 7 7 6 7 7 7 6 7 6 7 10 12 9 9 14 14 12 9 8 6 6 8 10 10 12 15 11 10
Wind_Direction
194 198 193 190 182 163 188 207 196 140 151 123 89 80 76 74 70 72 83 61 44 16 345 298 271 262 261 232 210 188 191 165 203 278 211 183 188 190 213 181 211 192 249
197 179 137 112 127 132 128 131 130 119 121 128 143 131 121 113 127 128 113 117 95 44 11 357 297 267 261 250 225 219 205 193 187 223 219 203 202 205 192 208 216 200 219
122 117 103 95 103 98 113 142 176 169 178 161 144 136 149 157 197 150 156 167 161 96 49 355 315 313 275 252 223 237 237 193 203 198 233 211 190 148 197 232 212 213 219
96 90 83 61 49 34 20 358 331 327 349 77 96 56 341 289 276 314 328 323 341 99 113 225 258 279 284 285 256 238 232 223 191 196 202 188 170 206 171 190 236 205 227
104 103 104 93 62 340 339 321 331 343 326 331 66 83 297 296 316 345 343 37 104 241 142 192 242 270 295 281 268 261 240 233 200 199 210 183 187 184 202 191 204 182 236
70 79 96 106 145 234 287 330 327 326 345 4 21 52 50 304 323 287 251 274 256 219 241 243 247 263 264 270 286 269 244 248 237 196 227 218 215 205 170 182 157 159 239
97 69 81 93 154 145 147 40 354 330 344 10 5 10 8 311 315 325 265 274 268 249 265 278 294 280 279 282 274 276 278 242 234 223 231 228 228 203 181 175 184 176 199
76 87 78 135 137 125 96 49 343 348 347 326 328 326 299 269 299 308 322 321 316 301 289 272 266 281 282 288 307 298 285 279 247 230 237 248 233 196 195 204 201 173 85
92 118 123 126 107 88 57 40 350 312 303 319 309 324 326 310 309 309 342 326 320 308 292 279 271 277 278 269 279 291 308 299 284 257 257 255 236 209 188 124 168 156 189
135 96 79 80 74 67 62 320 268 289 278 310 308 307 292 307 309 328 3 250 301 303 307 296 266 258 282 259 246 288 303 285 314 316 283 257 239 222 186 188 191 194 137
145 105 67 49 38 65 32 309 313 313 310 324 334 318 312 311 316 326 350 340 294 297 307 304 306 297 301 256 257 253 254 310 300 290 278 269 248 222 197 212 202 195 166
31 30 21 19 15 16 16 339 314 317 327 333 324 299 295 302 296 294 298 261 285 253 283 294 294 300 286 220 222 250 264 284 290 301 289 274 259 229 215 205 203 194 207
39 25 18 10 8 353 357 344 350 354 351 331 309 294 295 292 297 293 301 299 287 235 252 261 279 280 271 259 238 228 255 265 293 289 289 281 237 261 215 159 161 171 167
36 17 358 2 354 355 350 343 359 357 346 330 320 312 309 307 303 302 303 312 302 294 291 288 281 281 272 260 299 262 220 207 207 227 242 257 256 240 224 191 180 180 163
23 4 355 359 349 344 342 338 335 299 244 297 283 279 304 303 292 286 292 296 299 304 315 296 322 323 308 298 285 268 267 231 226 237 227 249 250 225 226 194 192 180 207
8 342 328 330 311 307 324 326 297 271 292 297 291 264 290 262 286 298 304 313 316 286 269 292 298 284 276 277 278 285 283 268 242 220 221 227 236 233 228 205 204 193 207
291 307 300 322 311 324 325 322 317 317 284 290 294 301 300 272 304 310 321 323 292 258 276 274 267 273 279 278 260 252 262 268 250 224 232 235 232 236 210 221 214 201 205
288 314 339 312 295 296 295 292 297 298 302 307 304 291 299 300 303 311 321 306 307 230 267 274 279 278 268 265 270 265 264 265 263 245 243 244 238 232 234 229 220 213 201
266 265 265 276 276 283 292 288 287 288 287 282 295 299 277 288 295 300 285 264 286 292 289 282 278 278 278 272 268 268 261 264 257 257 251 248 239 228 234 242 227 221 192
269 271 270 272 284 288 297 293 284 287 300 296 293 294 319 324 304 295 270 258 266 269 289 290 290 277 272 279 277 269 265 263 259 249 246 248 245 225 217 222 241 235 220
268 280 271 290 286 281 287 302 302 298 293 293 291 295 298 298 299 292 288 298 287 290 284 275 282 279 277 279 273 271 265 263 258 252 244 247 245 235 227 211 223 241 225
242 255 257 254 266 267 261 270 275 287 294 295 287 283 279 282 285 289 292 289 291 284 279 285 288 283 277 273 275 268 261 257 259 257 249 249 252 245 239 227 222 227 229
232 242 247 252 243 261 270 254 256 257 276 273 278 288 295 292 291 294 292 295 297 297 294 287 312 314 314 321 322 311 295 282 267 264 279 281 275 268 243 244 230 234 209
242 244 243 253 252 249 255 269 265 255 256 263 277 283 290 296 299 299 302 298 298 296 302 315 315 304 306 309 303 297 285 288 306 305 293 279 279 282 276 265 261 239 228
242 250 248 257 256 248 252 249 260 265 262 277 286 289 289 295 295 301 309 312 310 313 318 315 306 308 309 307 299 296 292 293 292 284 272 251 252 253 251 254 257 251 237
233 242 255 252 261 260 253 261 285 277 275 284 294 292 293 298 296 306 312 317 320 317 312 307 304 308 308 303 307 313 302 290 284 252 248 252 247 244 232 232 240 243 233